| time (UTC) | temp C | wind direction | speed KPH | gust KPH | rain 1hr cm | rain 24hr cm | rain mn cm | humidity % | barometer mb |
| 20260906120807 | 22 | 127 | 0.0 | 0.0 | 0.00 | 0.00 | 0.00 | 79 | 1015.4 |
| 20260906120302 | 22 | 147 | 1.6 | 1.6 | 0.00 | 0.00 | 0.00 | 80 | 1015.3 |
| 20260906115758 | 22 | 133 | 0.0 | 0.0 | 0.00 | 0.00 | 0.00 | 81 | 1015.0 |
| 20260906115253 | 22 | 99 | 0.0 | 0.0 | 0.00 | 0.00 | 0.00 | 83 | 1015.0 |
| 20260906114753 | 22 | 99 | 0.0 | 0.0 | 0.00 | 0.00 | 0.00 | 83 | 1015.1 |
| 20260906114248 | 22 | 101 | 1.6 | 1.6 | 0.00 | 0.00 | 0.00 | 83 | 1015.1 |
| 20260906113744 | 22 | 132 | 1.6 | 1.6 | 0.00 | 0.00 | 0.00 | 83 | 1014.9 |
| 20260906113243 | 22 | 113 | 0.0 | 0.0 | 0.00 | 0.00 | 0.00 | 83 | 1014.7 |
| 20260906112742 | 22 | 95 | 4.8 | 6.4 | 0.00 | 0.00 | 0.00 | 83 | 1014.8 |
| 20260906112239 | 22 | 136 | 0.0 | 0.0 | 0.00 | 0.00 | 0.00 | 83 | 1014.8 |
| 20260906111738 | 22 | 136 | 1.6 | 1.6 | 0.00 | 0.00 | 0.00 | 83 | 1014.7 |
| 20260906111233 | 22 | 124 | 0.0 | 0.0 | 0.00 | 0.00 | 0.00 | 83 | 1014.8 |
| 20260906110728 | 22 | 109 | 0.0 | 0.0 | 0.00 | 0.00 | 0.00 | 83 | 1014.6 |
| 20260906110224 | 22 | 109 | 0.0 | 0.0 | 0.00 | 0.00 | 0.00 | 83 | 1014.6 |
| 20260906105722 | 22 | 109 | 0.0 | 0.0 | 0.00 | 0.00 | 0.00 | 83 | 1014.5 |
| 20260906105219 | 22 | 109 | 0.0 | 1.6 | 0.00 | 0.00 | 0.00 | 84 | 1014.6 |
| 20260906104719 | 22 | 109 | 0.0 | 0.0 | 0.00 | 0.00 | 0.00 | 84 | 1014.6 |
| 20260906104218 | 22 | 144 | 0.0 | 0.0 | 0.00 | 0.00 | 0.00 | 83 | 1014.5 |
| 20260906103715 | 22 | 145 | 0.0 | 0.0 | 0.00 | 0.00 | 0.00 | 82 | 1014.6 |
| 20260906103210 | 22 | 145 | 0.0 | 0.0 | 0.00 | 0.00 | 0.00 | 82 | 1014.6 |
| 20260906102706 | 22 | 145 | 0.0 | 0.0 | 0.00 | 0.00 | 0.00 | 83 | 1014.6 |
| 20260906102206 | 22 | 127 | 0.0 | 1.6 | 0.00 | 0.00 | 0.00 | 83 | 1014.4 |
| 20260906101705 | 22 | 127 | 0.0 | 0.0 | 0.00 | 0.00 | 0.00 | 83 | 1014.2 |
| 20260906101200 | 22 | 127 | 0.0 | 0.0 | 0.00 | 0.00 | 0.00 | 83 | 1014.4 |
| 20260906100656 | 22 | 127 | 0.0 | 0.0 | 0.00 | 0.00 | 0.00 | 83 | 1014.5 |
| 20260906100156 | 22 | 127 | 0.0 | 0.0 | 0.00 | 0.00 | 0.00 | 83 | 1014.3 |
| 20260906095651 | 22 | 127 | 0.0 | 0.0 | 0.00 | 0.00 | 0.00 | 82 | 1014.5 |
| 20260906095146 | 22 | 127 | 0.0 | 0.0 | 0.00 | 0.00 | 0.00 | 82 | 1014.4 |
| 20260906094645 | 22 | 144 | 0.0 | 1.6 | 0.00 | 0.00 | 0.00 | 83 | 1014.4 |
| 20260906094141 | 22 | 150 | 0.0 | 1.6 | 0.00 | 0.00 | 0.00 | 83 | 1014.3 |
| 20260906093637 | 22 | 130 | 1.6 | 1.6 | 0.00 | 0.00 | 0.00 | 84 | 1014.2 |
| 20260906093137 | 22 | 123 | 0.0 | 0.0 | 0.00 | 0.00 | 0.00 | 83 | 1014.0 |
| 20260906092632 | 22 | 116 | 0.0 | 0.0 | 0.00 | 0.00 | 0.00 | 83 | 1014.2 |
| 20260906092132 | 22 | 116 | 0.0 | 0.0 | 0.00 | 0.00 | 0.00 | 82 | 1014.2 |
| 20260906091629 | 22 | 116 | 0.0 | 0.0 | 0.00 | 0.00 | 0.00 | 82 | 1014.3 |
| 20260906091126 | 22 | 116 | 0.0 | 0.0 | 0.00 | 0.00 | 0.00 | 83 | 1014.2 |
| 20260906090621 | 22 | 116 | 0.0 | 0.0 | 0.00 | 0.00 | 0.00 | 83 | 1013.9 |
| 20260906090120 | 22 | 116 | 0.0 | 0.0 | 0.00 | 0.00 | 0.00 | 83 | 1014.0 |
| 20260906085619 | 21 | 116 | 0.0 | 0.0 | 0.00 | 0.00 | 0.00 | 82 | 1013.8 |
| 20260906085114 | 21 | 116 | 0.0 | 0.0 | 0.00 | 0.00 | 0.00 | 83 | 1013.9 |
| 20260906084608 | 21 | 116 | 0.0 | 0.0 | 0.00 | 0.00 | 0.00 | 82 | 1013.8 |
| 20260906084107 | 22 | 116 | 0.0 | 0.0 | 0.00 | 0.00 | 0.00 | 82 | 1013.8 |
| 20260906083603 | 22 | 115 | 0.0 | 0.0 | 0.00 | 0.00 | 0.00 | 83 | 1013.9 |
| 20260906083103 | 21 | 115 | 0.0 | 1.6 | 0.00 | 0.00 | 0.00 | 83 | 1013.8 |
| 20260906082558 | 21 | 115 | 0.0 | 1.6 | 0.00 | 0.00 | 0.00 | 84 | 1013.6 |
| 20260906082054 | 21 | 115 | 0.0 | 0.0 | 0.00 | 0.00 | 0.00 | 84 | 1013.6 |
| 20260906081550 | 21 | 115 | 0.0 | 0.0 | 0.00 | 0.00 | 0.00 | 84 | 1013.3 |
| 20260906081045 | 21 | 115 | 0.0 | 0.0 | 0.00 | 0.00 | 0.00 | 84 | 1013.3 |
| 20260906080541 | 21 | 115 | 0.0 | 0.0 | 0.00 | 0.00 | 0.00 | 85 | 1013.5 |
| 20260906080038 | 21 | 115 | 0.0 | 0.0 | 0.00 | 0.00 | 0.00 | 85 | 1013.8 |
| 20260906075537 | 21 | 115 | 0.0 | 0.0 | 0.00 | 0.00 | 0.00 | 85 | 1013.5 |
| 20260906075031 | 21 | 115 | 0.0 | 0.0 | 0.00 | 0.00 | 0.00 | 85 | 1013.2 |
| 20260906074526 | 21 | 115 | 0.0 | 0.0 | 0.00 | 0.00 | 0.00 | 85 | 1013.5 |
| 20260906074020 | 21 | 115 | 0.0 | 0.0 | 0.00 | 0.00 | 0.00 | 85 | 1013.5 |
| 20260906073514 | 21 | 115 | 0.0 | 0.0 | 0.00 | 0.00 | 0.00 | 86 | 1013.3 |
| 20260906073010 | 21 | 115 | 0.0 | 0.0 | 0.00 | 0.00 | 0.00 | 86 | 1013.3 |
| 20260906072506 | 21 | 115 | 0.0 | 0.0 | 0.00 | 0.00 | 0.00 | 86 | 1013.5 |
| 20260906072002 | 21 | 115 | 0.0 | 0.0 | 0.00 | 0.00 | 0.00 | 86 | 1013.5 |
| 20260906071458 | 21 | 115 | 0.0 | 0.0 | 0.00 | 0.00 | 0.00 | 86 | 1013.5 |
| 20260906070952 | 20 | 115 | 0.0 | 0.0 | 0.00 | 0.00 | 0.00 | 87 | 1013.7 |
| 20260906070448 | 20 | 115 | 0.0 | 0.0 | 0.00 | 0.00 | 0.00 | 86 | 1013.7 |
| 20260906065944 | 21 | 115 | 0.0 | 0.0 | 0.00 | 0.00 | 0.00 | 86 | 1013.6 |
| 20260906065438 | 21 | 115 | 0.0 | 0.0 | 0.00 | 0.00 | 0.00 | 86 | 1013.9 |
| 20260906064933 | 21 | 115 | 0.0 | 0.0 | 0.00 | 0.00 | 0.00 | 86 | 1013.7 |
| 20260906064429 | 21 | 115 | 0.0 | 0.0 | 0.00 | 0.00 | 0.00 | 86 | 1013.8 |
| 20260906063924 | 20 | 115 | 0.0 | 0.0 | 0.00 | 0.00 | 0.00 | 86 | 1013.8 |
| 20260906063419 | 21 | 115 | 0.0 | 0.0 | 0.00 | 0.00 | 0.00 | 86 | 1013.9 |
| 20260906062914 | 21 | 115 | 0.0 | 0.0 | 0.00 | 0.00 | 0.00 | 86 | 1013.8 |
| 20260906062414 | 21 | 115 | 0.0 | 0.0 | 0.00 | 0.00 | 0.00 | 85 | 1013.9 |
| 20260906061909 | 21 | 115 | 0.0 | 0.0 | 0.00 | 0.00 | 0.00 | 85 | 1014.0 |
| 20260906061406 | 21 | 115 | 0.0 | 0.0 | 0.00 | 0.00 | 0.00 | 85 | 1013.9 |
| 20260906060900 | 21 | 115 | 0.0 | 0.0 | 0.00 | 0.00 | 0.00 | 84 | 1014.1 |
| 20260906060358 | 21 | 115 | 0.0 | 0.0 | 0.00 | 0.00 | 0.00 | 84 | 1014.0 |
| 20260906055853 | 21 | 115 | 0.0 | 0.0 | 0.00 | 0.00 | 0.00 | 83 | 1014.1 |
| 20260906055349 | 21 | 115 | 0.0 | 0.0 | 0.00 | 0.00 | 0.00 | 83 | 1014.1 |
| 20260906054844 | 21 | 115 | 0.0 | 0.0 | 0.00 | 0.00 | 0.00 | 82 | 1014.0 |
| 20260906054338 | 21 | 115 | 0.0 | 0.0 | 0.00 | 0.00 | 0.00 | 82 | 1014.1 |
| 20260906053835 | 21 | 115 | 0.0 | 0.0 | 0.00 | 0.00 | 0.00 | 82 | 1014.0 |
| 20260906053331 | 21 | 115 | 0.0 | 0.0 | 0.00 | 0.00 | 0.00 | 82 | 1014.2 |
| 20260906052826 | 21 | 115 | 0.0 | 0.0 | 0.00 | 0.00 | 0.00 | 82 | 1014.0 |
| 20260906052322 | 21 | 115 | 0.0 | 0.0 | 0.00 | 0.00 | 0.00 | 82 | 1014.0 |
| 20260906051819 | 21 | 115 | 0.0 | 0.0 | 0.00 | 0.00 | 0.00 | 82 | 1014.1 |
| 20260906051318 | 21 | 115 | 0.0 | 0.0 | 0.00 | 0.00 | 0.00 | 81 | 1014.0 |
| 20260906050814 | 21 | 115 | 0.0 | 0.0 | 0.00 | 0.00 | 0.00 | 80 | 1013.9 |
| 20260906050309 | 22 | 115 | 0.0 | 0.0 | 0.00 | 0.00 | 0.00 | 80 | 1013.7 |
| 20260906045808 | 21 | 115 | 1.6 | 1.6 | 0.00 | 0.00 | 0.00 | 80 | 1013.9 |
| 20260906045305 | 22 | 116 | 0.0 | 0.0 | 0.00 | 0.00 | 0.00 | 80 | 1013.8 |
| 20260906044759 | 22 | 115 | 0.0 | 0.0 | 0.00 | 0.00 | 0.00 | 79 | 1013.9 |
| 20260906044253 | 22 | 115 | 0.0 | 0.0 | 0.00 | 0.00 | 0.00 | 79 | 1013.8 |
| 20260906043749 | 22 | 115 | 0.0 | 0.0 | 0.00 | 0.00 | 0.00 | 79 | 1013.9 |
| 20260906043245 | 22 | 115 | 0.0 | 0.0 | 0.00 | 0.00 | 0.00 | 78 | 1014.0 |
| 20260906042745 | 22 | 115 | 0.0 | 0.0 | 0.00 | 0.00 | 0.00 | 78 | 1014.0 |
| 20260906042244 | 22 | 115 | 0.0 | 0.0 | 0.00 | 0.00 | 0.00 | 78 | 1013.9 |
| 20260906041739 | 22 | 115 | 0.0 | 0.0 | 0.00 | 0.00 | 0.00 | 78 | 1013.9 |
| 20260906041234 | 22 | 115 | 0.0 | 0.0 | 0.00 | 0.00 | 0.00 | 77 | 1013.9 |
| 20260906040730 | 22 | 115 | 0.0 | 0.0 | 0.00 | 0.00 | 0.00 | 76 | 1014.0 |
| 20260906040225 | 22 | 114 | 0.0 | 0.0 | 0.00 | 0.00 | 0.00 | 76 | 1014.0 |
| 20260906035721 | 22 | 155 | 0.0 | 0.0 | 0.00 | 0.00 | 0.00 | 76 | 1014.2 |
| 20260906035216 | 22 | 155 | 0.0 | 0.0 | 0.00 | 0.00 | 0.00 | 76 | 1014.2 |
| 20260906034716 | 22 | 155 | 0.0 | 0.0 | 0.00 | 0.00 | 0.00 | 75 | 1014.2 |
| 20260906034211 | 23 | 155 | 0.0 | 0.0 | 0.00 | 0.00 | 0.00 | 74 | 1014.0 |
| 20260906033707 | 23 | 155 | 0.0 | 0.0 | 0.00 | 0.00 | 0.00 | 74 | 1014.1 |
| 20260906033206 | 23 | 155 | 0.0 | 0.0 | 0.00 | 0.00 | 0.00 | 74 | 1014.1 |
| 20260906032703 | 23 | 155 | 0.0 | 0.0 | 0.00 | 0.00 | 0.00 | 72 | 1014.2 |
| 20260906032158 | 23 | 156 | 0.0 | 0.0 | 0.00 | 0.00 | 0.00 | 73 | 1014.1 |
| 20260906031653 | 23 | 156 | 0.0 | 0.0 | 0.00 | 0.00 | 0.00 | 71 | 1014.2 |
| 20260906031148 | 23 | 156 | 0.0 | 0.0 | 0.00 | 0.00 | 0.00 | 71 | 1013.8 |
| 20260906030648 | 23 | 156 | 0.0 | 1.6 | 0.00 | 0.00 | 0.00 | 71 | 1014.0 |
| 20260906030143 | 23 | 155 | 0.0 | 0.0 | 0.00 | 0.00 | 0.00 | 71 | 1014.3 |
| 20260906025642 | 24 | 155 | 0.0 | 0.0 | 0.00 | 0.00 | 0.00 | 70 | 1014.1 |
| 20260906025142 | 24 | 155 | 0.0 | 0.0 | 0.00 | 0.00 | 0.00 | 69 | 1014.0 |
| 20260906024637 | 24 | 155 | 0.0 | 0.0 | 0.00 | 0.00 | 0.00 | 68 | 1013.7 |
| 20260906024136 | 24 | 155 | 0.0 | 0.0 | 0.00 | 0.00 | 0.00 | 68 | 1013.9 |
| 20260906023632 | 24 | 155 | 0.0 | 0.0 | 0.00 | 0.00 | 0.00 | 68 | 1013.8 |
| 20260906023132 | 24 | 155 | 0.0 | 0.0 | 0.00 | 0.00 | 0.00 | 68 | 1013.8 |
| 20260906022627 | 25 | 155 | 0.0 | 0.0 | 0.00 | 0.00 | 0.00 | 67 | 1013.9 |
| 20260906022123 | 25 | 156 | 0.0 | 0.0 | 0.00 | 0.00 | 0.00 | 66 | 1013.8 |
| 20260906021619 | 25 | 156 | 0.0 | 0.0 | 0.00 | 0.00 | 0.00 | 65 | 1013.7 |
| 20260906021117 | 25 | 156 | 0.0 | 0.0 | 0.00 | 0.00 | 0.00 | 64 | 1013.5 |
| 20260906020617 | 25 | 157 | 0.0 | 0.0 | 0.00 | 0.00 | 0.00 | 63 | 1013.7 |
| 20260906020112 | 25 | 157 | 0.0 | 1.6 | 0.00 | 0.00 | 0.00 | 63 | 1013.3 |
| 20260906015606 | 25 | 92 | 0.0 | 0.0 | 0.00 | 0.00 | 0.00 | 63 | 1013.5 |
| 20260906015105 | 25 | 92 | 1.6 | 1.6 | 0.00 | 0.00 | 0.00 | 63 | 1013.3 |
| 20260906014600 | 26 | 92 | 0.0 | 0.0 | 0.00 | 0.00 | 0.00 | 62 | 1013.2 |
| 20260906014056 | 26 | 96 | 0.0 | 0.0 | 0.00 | 0.00 | 0.00 | 62 | 1013.3 |
| 20260906013551 | 26 | 96 | 0.0 | 0.0 | 0.00 | 0.00 | 0.00 | 62 | 1013.0 |
| 20260906013046 | 26 | 96 | 0.0 | 0.0 | 0.00 | 0.00 | 0.00 | 62 | 1013.0 |
| 20260906012541 | 26 | 96 | 0.0 | 0.0 | 0.00 | 0.00 | 0.00 | 61 | 1013.1 |
| 20260906012041 | 27 | 97 | 1.6 | 1.6 | 0.00 | 0.00 | 0.00 | 60 | 1013.1 |
| 20260906011537 | 27 | 97 | 0.0 | 0.0 | 0.00 | 0.00 | 0.00 | 60 | 1012.9 |
| 20260906011036 | 27 | 99 | 0.0 | 0.0 | 0.00 | 0.00 | 0.00 | 60 | 1012.8 |
| 20260906010532 | 27 | 98 | 0.0 | 1.6 | 0.00 | 0.00 | 0.00 | 56 | 1012.8 |
| 20260906010028 | 27 | 99 | 0.0 | 0.0 | 0.00 | 0.00 | 0.00 | 55 | 1012.9 |
| 20260906005527 | 27 | 99 | 0.0 | 0.0 | 0.00 | 0.00 | 0.00 | 55 | 1012.9 |
| 20260906005027 | 27 | 99 | 0.0 | 0.0 | 0.00 | 0.00 | 0.00 | 54 | 1012.9 |
| 20260906004526 | 27 | 99 | 0.0 | 0.0 | 0.00 | 0.00 | 0.00 | 54 | 1012.9 |
| 20260906004021 | 27 | 79 | 1.6 | 1.6 | 0.00 | 0.00 | 0.00 | 53 | 1012.5 |
| 20260906003517 | 27 | 118 | 0.0 | 0.0 | 0.00 | 0.00 | 0.00 | 53 | 1012.6 |
| 20260906003013 | 28 | 118 | 0.0 | 0.0 | 0.00 | 0.00 | 0.00 | 53 | 1012.8 |
| 20260906002513 | 28 | 118 | 0.0 | 0.0 | 0.00 | 0.00 | 0.00 | 53 | 1012.7 |
| 20260906002008 | 28 | 120 | 0.0 | 0.0 | 0.00 | 0.00 | 0.00 | 53 | 1012.6 |
| 20260906001503 | 28 | 109 | 0.0 | 0.0 | 0.00 | 0.00 | 0.00 | 52 | 1012.6 |
| 20260906000957 | 28 | 109 | 0.0 | 0.0 | 0.00 | 0.00 | 0.00 | 53 | 1012.4 |
| 20260906000455 | 28 | 132 | 0.0 | 0.0 | 0.00 | 0.00 | 0.00 | 52 | 1012.3 |
| 20260905235948 | 28 | 129 | 0.0 | 0.0 | 0.00 | 0.00 | 0.00 | 52 | 1012.3 |
| 20260905235448 | 28 | 109 | 0.0 | 0.0 | 0.00 | 0.00 | 0.00 | 52 | 1012.0 |
| 20260905234943 | 28 | 155 | 1.6 | 1.6 | 0.00 | 0.00 | 0.00 | 52 | 1012.1 |
| 20260905234439 | 29 | 136 | 1.6 | 1.6 | 0.00 | 0.00 | 0.00 | 51 | 1011.9 |
| 20260905233938 | 29 | 349 | 6.4 | 9.7 | 0.00 | 0.00 | 0.00 | 50 | 1012.0 |
| 20260905233434 | 30 | 124 | 0.0 | 0.0 | 0.00 | 0.00 | 0.00 | 50 | 1012.1 |
| 20260905232932 | 30 | 114 | 0.0 | 1.6 | 0.00 | 0.00 | 0.00 | 50 | 1012.1 |
| 20260905232429 | 30 | 136 | 1.6 | 1.6 | 0.00 | 0.00 | 0.00 | 49 | 1012.0 |
| 20260905231924 | 30 | 164 | 1.6 | 1.6 | 0.00 | 0.00 | 0.00 | 48 | 1012.0 |
| 20260905231420 | 30 | 322 | 3.2 | 3.2 | 0.00 | 0.00 | 0.00 | 47 | 1011.9 |
| 20260905230916 | 31 | 104 | 0.0 | 0.0 | 0.00 | 0.00 | 0.00 | 48 | 1012.0 |
| 20260905230414 | 31 | 157 | 1.6 | 3.2 | 0.00 | 0.00 | 0.00 | 46 | 1012.2 |
| 20260905225913 | 31 | 320 | 4.8 | 6.4 | 0.00 | 0.00 | 0.00 | 45 | 1012.1 |
| 20260905225408 | 31 | 297 | 4.8 | 4.8 | 0.00 | 0.00 | 0.00 | 46 | 1012.1 |
| 20260905224903 | 32 | 12 | 3.2 | 4.8 | 0.00 | 0.00 | 0.00 | 44 | 1012.1 |
| 20260905224359 | 32 | 115 | 1.6 | 1.6 | 0.00 | 0.00 | 0.00 | 43 | 1012.0 |
| 20260905223854 | 32 | 150 | 3.2 | 3.2 | 0.00 | 0.00 | 0.00 | 45 | 1012.1 |
| 20260905223352 | 32 | 225 | 4.8 | 4.8 | 0.00 | 0.00 | 0.00 | 43 | 1012.3 |
| 20260905222851 | 33 | 155 | 3.2 | 3.2 | 0.00 | 0.00 | 0.00 | 43 | 1012.0 |
| 20260905222350 | 33 | 158 | 1.6 | 1.6 | 0.00 | 0.00 | 0.00 | 42 | 1011.8 |
| 20260905221847 | 33 | 10 | 6.4 | 6.4 | 0.00 | 0.00 | 0.00 | 42 | 1012.0 |
| 20260905221343 | 33 | 112 | 0.0 | 1.6 | 0.00 | 0.00 | 0.00 | 42 | 1012.0 |
| 20260905220839 | 33 | 238 | 3.2 | 4.8 | 0.00 | 0.00 | 0.00 | 43 | 1011.9 |
| 20260905220335 | 33 | 189 | 1.6 | 3.2 | 0.00 | 0.00 | 0.00 | 43 | 1011.8 |
| 20260905215834 | 33 | 218 | 3.2 | 3.2 | 0.00 | 0.00 | 0.00 | 41 | 1012.0 |
| 20260905215330 | 33 | 93 | 1.6 | 1.6 | 0.00 | 0.00 | 0.00 | 40 | 1011.9 |
| 20260905214826 | 33 | 93 | 3.2 | 3.2 | 0.00 | 0.00 | 0.00 | 41 | 1011.7 |
| 20260905214321 | 33 | 80 | 1.6 | 1.6 | 0.00 | 0.00 | 0.00 | 42 | 1011.7 |
| 20260905213816 | 33 | 61 | 1.6 | 3.2 | 0.00 | 0.00 | 0.00 | 43 | 1011.6 |
| 20260905213312 | 33 | 124 | 0.0 | 0.0 | 0.00 | 0.00 | 0.00 | 41 | 1011.5 |
| 20260905212813 | 33 | 69 | 4.8 | 6.4 | 0.00 | 0.00 | 0.00 | 41 | 1011.5 |
| 20260905212313 | 33 | 81 | 3.2 | 4.8 | 0.00 | 0.00 | 0.00 | 41 | 1011.5 |
| 20260905211813 | 32 | 86 | 4.8 | 4.8 | 0.00 | 0.00 | 0.00 | 42 | 1011.4 |
| 20260905211308 | 33 | 98 | 3.2 | 4.8 | 0.00 | 0.00 | 0.00 | 42 | 1011.5 |
| 20260905210804 | 32 | 109 | 1.6 | 1.6 | 0.00 | 0.00 | 0.00 | 41 | 1011.6 |
| 20260905210304 | 32 | 79 | 3.2 | 3.2 | 0.00 | 0.00 | 0.00 | 42 | 1011.4 |
| 20260905205803 | 32 | 105 | 1.6 | 1.6 | 0.00 | 0.00 | 0.00 | 41 | 1011.5 |
| 20260905205257 | 32 | 122 | 1.6 | 1.6 | 0.00 | 0.00 | 0.00 | 42 | 1011.7 |
| 20260905204757 | 32 | 67 | 3.2 | 3.2 | 0.00 | 0.00 | 0.00 | 42 | 1011.4 |
| 20260905204253 | 32 | 332 | 6.4 | 9.7 | 0.00 | 0.00 | 0.00 | 41 | 1011.6 |
| 20260905203752 | 32 | 108 | 1.6 | 1.6 | 0.00 | 0.00 | 0.00 | 41 | 1011.6 |
| 20260905203248 | 32 | 132 | 3.2 | 4.8 | 0.00 | 0.00 | 0.00 | 42 | 1011.6 |
| 20260905202743 | 32 | 329 | 6.4 | 9.7 | 0.00 | 0.00 | 0.00 | 39 | 1011.7 |
| 20260905202238 | 33 | 79 | 4.8 | 6.4 | 0.00 | 0.00 | 0.00 | 39 | 1011.7 |
| 20260905201733 | 33 | 78 | 1.6 | 3.2 | 0.00 | 0.00 | 0.00 | 40 | 1011.5 |
| 20260905201229 | 33 | 46 | 1.6 | 3.2 | 0.00 | 0.00 | 0.00 | 39 | 1011.6 |
| 20260905200723 | 33 | 50 | 6.4 | 11.3 | 0.00 | 0.00 | 0.00 | 38 | 1011.4 |
| 20260905200219 | 33 | 153 | 3.2 | 3.2 | 0.00 | 0.00 | 0.00 | 39 | 1011.3 |
| 20260905195717 | 33 | 101 | 1.6 | 3.2 | 0.00 | 0.00 | 0.00 | 39 | 1011.4 |
| 20260905195212 | 33 | 153 | 1.6 | 1.6 | 0.00 | 0.00 | 0.00 | 39 | 1011.4 |
| 20260905194708 | 34 | 346 | 9.7 | 11.3 | 0.00 | 0.00 | 0.00 | 37 | 1011.3 |
| 20260905194207 | 33 | 146 | 3.2 | 4.8 | 0.00 | 0.00 | 0.00 | 39 | 1011.2 |
| 20260905193701 | 33 | 140 | 3.2 | 4.8 | 0.00 | 0.00 | 0.00 | 37 | 1011.4 |
| 20260905193157 | 33 | 107 | 3.2 | 4.8 | 0.00 | 0.00 | 0.00 | 38 | 1011.2 |
| 20260905192652 | 33 | 95 | 4.8 | 6.4 | 0.00 | 0.00 | 0.00 | 38 | 1011.5 |
| 20260905192149 | 33 | 14 | 6.4 | 6.4 | 0.00 | 0.00 | 0.00 | 37 | 1011.8 |
| 20260905191648 | 33 | 189 | 3.2 | 3.2 | 0.00 | 0.00 | 0.00 | 38 | 1011.5 |
| 20260905191146 | 33 | 130 | 3.2 | 3.2 | 0.00 | 0.00 | 0.00 | 39 | 1011.7 |
| 20260905190645 | 33 | 76 | 4.8 | 6.4 | 0.00 | 0.00 | 0.00 | 38 | 1011.8 |
| 20260905190144 | 32 | 158 | 6.4 | 9.7 | 0.00 | 0.00 | 0.00 | 39 | 1012.1 |
| 20260905185643 | 33 | 16 | 6.4 | 9.7 | 0.00 | 0.00 | 0.00 | 39 | 1012.2 |
| 20260905185138 | 33 | 303 | 8.0 | 9.7 | 0.00 | 0.00 | 0.00 | 40 | 1012.4 |
| 20260905184637 | 32 | 296 | 11.3 | 14.5 | 0.00 | 0.00 | 0.00 | 39 | 1012.5 |
| 20260905184136 | 33 | 258 | 8.0 | 9.7 | 0.00 | 0.00 | 0.00 | 44 | 1012.7 |
| 20260905183636 | 32 | 66 | 4.8 | 6.4 | 0.00 | 0.00 | 0.00 | 43 | 1012.7 |
| 20260905183131 | 32 | 190 | 3.2 | 4.8 | 0.00 | 0.00 | 0.00 | 48 | 1012.8 |
| 20260905182631 | 32 | 114 | 1.6 | 3.2 | 0.00 | 0.00 | 0.00 | 49 | 1012.8 |
| 20260905182131 | 31 | 15 | 6.4 | 6.4 | 0.00 | 0.00 | 0.00 | 49 | 1013.0 |
| 20260905181626 | 31 | 191 | 1.6 | 1.6 | 0.00 | 0.00 | 0.00 | 51 | 1013.0 |
| 20260905181125 | 31 | 330 | 6.4 | 6.4 | 0.00 | 0.00 | 0.00 | 52 | 1013.0 |
| 20260905180620 | 31 | 4 | 8.0 | 11.3 | 0.00 | 0.00 | 0.00 | 49 | 1013.0 |
| 20260905180115 | 31 | 255 | 3.2 | 4.8 | 0.00 | 0.00 | 0.00 | 51 | 1013.1 |
| 20260905175614 | 30 | 299 | 3.2 | 4.8 | 0.00 | 0.00 | 0.00 | 51 | 1013.2 |
| 20260905175109 | 30 | 137 | 0.0 | 0.0 | 0.00 | 0.00 | 0.00 | 53 | 1013.2 |
| 20260905174605 | 30 | 206 | 4.8 | 4.8 | 0.00 | 0.00 | 0.00 | 52 | 1013.6 |
| 20260905174100 | 30 | 84 | 1.6 | 3.2 | 0.00 | 0.00 | 0.00 | 52 | 1013.3 |
| 20260905173557 | 30 | 268 | 3.2 | 3.2 | 0.00 | 0.00 | 0.00 | 52 | 1013.1 |
| 20260905173052 | 30 | 160 | 3.2 | 3.2 | 0.00 | 0.00 | 0.00 | 52 | 1013.1 |
| 20260905172550 | 30 | 84 | 3.2 | 3.2 | 0.00 | 0.00 | 0.00 | 52 | 1013.2 |
| 20260905172046 | 30 | 305 | 4.8 | 6.4 | 0.00 | 0.00 | 0.00 | 51 | 1013.0 |
| 20260905171542 | 30 | 253 | 6.4 | 6.4 | 0.00 | 0.00 | 0.00 | 49 | 1013.0 |
| 20260905171038 | 30 | 220 | 3.2 | 4.8 | 0.00 | 0.00 | 0.00 | 50 | 1013.0 |
| 20260905170535 | 30 | 198 | 4.8 | 4.8 | 0.00 | 0.00 | 0.00 | 52 | 1013.3 |
| 20260905170029 | 30 | 167 | 3.2 | 3.2 | 0.00 | 0.00 | 0.00 | 51 | 1013.5 |
| 20260905165524 | 30 | 184 | 1.6 | 3.2 | 0.00 | 0.00 | 0.00 | 53 | 1013.5 |
| 20260905165020 | 30 | 162 | 3.2 | 4.8 | 0.00 | 0.00 | 0.00 | 52 | 1013.7 |
| 20260905164520 | 30 | 309 | 8.0 | 11.3 | 0.00 | 0.00 | 0.00 | 52 | 1014.1 |
| 20260905164015 | 30 | 251 | 3.2 | 4.8 | 0.00 | 0.00 | 0.00 | 51 | 1014.0 |
| 20260905163511 | 30 | 99 | 1.6 | 1.6 | 0.00 | 0.00 | 0.00 | 52 | 1014.1 |
| 20260905163006 | 30 | 24 | 6.4 | 9.7 | 0.00 | 0.00 | 0.00 | 51 | 1014.1 |
| 20260905162502 | 30 | 152 | 3.2 | 4.8 | 0.00 | 0.00 | 0.00 | 55 | 1014.3 |
| 20260905161957 | 29 | 169 | 3.2 | 4.8 | 0.00 | 0.00 | 0.00 | 55 | 1014.3 |
| 20260905161456 | 30 | 321 | 4.8 | 4.8 | 0.00 | 0.00 | 0.00 | 54 | 1014.0 |
| 20260905160954 | 30 | 264 | 3.2 | 4.8 | 0.00 | 0.00 | 0.00 | 56 | 1014.0 |
| 20260905160448 | 30 | 160 | 0.0 | 1.6 | 0.00 | 0.00 | 0.00 | 54 | 1014.4 |
| 20260905155947 | 30 | 157 | 1.6 | 1.6 | 0.00 | 0.00 | 0.00 | 55 | 1014.7 |
| 20260905155443 | 30 | 327 | 4.8 | 6.4 | 0.00 | 0.00 | 0.00 | 52 | 1014.8 |
| 20260905154941 | 30 | 106 | 1.6 | 1.6 | 0.00 | 0.00 | 0.00 | 52 | 1014.6 |
| 20260905154436 | 29 | 87 | 3.2 | 3.2 | 0.00 | 0.00 | 0.00 | 54 | 1014.8 |
| 20260905153932 | 29 | 276 | 6.4 | 6.4 | 0.00 | 0.00 | 0.00 | 54 | 1015.2 |
| 20260905153428 | 28 | 33 | 4.8 | 9.7 | 0.00 | 0.00 | 0.00 | 56 | 1015.1 |
| 20260905152927 | 28 | 163 | 3.2 | 3.2 | 0.00 | 0.00 | 0.00 | 57 | 1015.0 |
| 20260905152427 | 28 | 129 | 0.0 | 1.6 | 0.00 | 0.00 | 0.00 | 61 | 1014.8 |
| 20260905151922 | 28 | 289 | 3.2 | 3.2 | 0.00 | 0.00 | 0.00 | 61 | 1015.1 |
| 20260905151418 | 28 | 142 | 1.6 | 1.6 | 0.00 | 0.00 | 0.00 | 61 | 1014.9 |
| 20260905150918 | 28 | 66 | 3.2 | 3.2 | 0.00 | 0.00 | 0.00 | 62 | 1015.0 |
| 20260905150413 | 28 | 108 | 1.6 | 3.2 | 0.00 | 0.00 | 0.00 | 61 | 1014.9 |
| 20260905145909 | 28 | 352 | 12.9 | 16.1 | 0.00 | 0.00 | 0.00 | 60 | 1015.0 |
| 20260905145404 | 29 | 57 | 6.4 | 14.5 | 0.00 | 0.00 | 0.00 | 62 | 1014.9 |
| 20260905144903 | 29 | 35 | 3.2 | 4.8 | 0.00 | 0.00 | 0.00 | 62 | 1014.7 |
| 20260905144359 | 29 | 105 | 1.6 | 1.6 | 0.00 | 0.00 | 0.00 | 61 | 1014.4 |
| 20260905143858 | 29 | 83 | 0.0 | 0.0 | 0.00 | 0.00 | 0.00 | 62 | 1014.3 |
| 20260905143352 | 29 | 133 | 1.6 | 1.6 | 0.00 | 0.00 | 0.00 | 61 | 1014.4 |
| 20260905142851 | 29 | 287 | 3.2 | 4.8 | 0.00 | 0.00 | 0.00 | 60 | 1014.6 |
| 20260905142350 | 30 | 148 | 1.6 | 1.6 | 0.00 | 0.00 | 0.00 | 60 | 1014.3 |
| 20260905141846 | 30 | 151 | 0.0 | 1.6 | 0.00 | 0.00 | 0.00 | 59 | 1014.3 |
| 20260905141341 | 30 | 143 | 1.6 | 3.2 | 0.00 | 0.00 | 0.00 | 60 | 1014.6 |
| 20260905140837 | 29 | 275 | 3.2 | 3.2 | 0.00 | 0.00 | 0.00 | 60 | 1014.1 |
| 20260905140337 | 29 | 254 | 3.2 | 3.2 | 0.00 | 0.00 | 0.00 | 60 | 1014.2 |
| 20260905135836 | 30 | 163 | 3.2 | 4.8 | 0.00 | 0.00 | 0.00 | 60 | 1014.1 |
| 20260905135332 | 30 | 171 | 1.6 | 3.2 | 0.00 | 0.00 | 0.00 | 60 | 1014.0 |
| 20260905134828 | 30 | 286 | 3.2 | 4.8 | 0.00 | 0.00 | 0.00 | 59 | 1014.2 |
| 20260905134326 | 29 | 275 | 6.4 | 6.4 | 0.00 | 0.00 | 0.00 | 60 | 1014.2 |
| 20260905133827 | 28 | 96 | 3.2 | 3.2 | 0.00 | 0.00 | 0.00 | 62 | 1014.3 |
| 20260905133322 | 28 | 290 | 3.2 | 3.2 | 0.00 | 0.00 | 0.00 | 63 | 1014.2 |
| 20260905132821 | 28 | 150 | 1.6 | 1.6 | 0.00 | 0.00 | 0.00 | 63 | 1014.3 |
| 20260905132317 | 27 | 133 | 0.0 | 1.6 | 0.00 | 0.00 | 0.00 | 65 | 1014.1 |
| 20260905131816 | 27 | 152 | 0.0 | 1.6 | 0.00 | 0.00 | 0.00 | 66 | 1014.0 |
| 20260905131312 | 27 | 266 | 3.2 | 6.4 | 0.00 | 0.00 | 0.00 | 66 | 1013.9 |
| 20260905130808 | 27 | 255 | 3.2 | 4.8 | 0.00 | 0.00 | 0.00 | 66 | 1014.0 |
| 20260905130306 | 27 | 187 | 1.6 | 3.2 | 0.00 | 0.00 | 0.00 | 66 | 1014.1 |
| 20260905125802 | 27 | 160 | 1.6 | 1.6 | 0.00 | 0.00 | 0.00 | 66 | 1014.0 |
| 20260905125256 | 27 | 170 | 3.2 | 3.2 | 0.00 | 0.00 | 0.00 | 66 | 1014.4 |
| 20260905124753 | 26 | 147 | 1.6 | 1.6 | 0.00 | 0.00 | 0.00 | 68 | 1014.2 |
| 20260905124248 | 26 | 297 | 3.2 | 3.2 | 0.00 | 0.00 | 0.00 | 69 | 1014.1 |
| 20260905123743 | 26 | 180 | 1.6 | 3.2 | 0.00 | 0.00 | 0.00 | 70 | 1014.0 |
| 20260905123241 | 26 | 129 | 1.6 | 1.6 | 0.00 | 0.00 | 0.00 | 71 | 1014.3 |
| 20260905122741 | 25 | 272 | 4.8 | 4.8 | 0.00 | 0.00 | 0.00 | 71 | 1014.1 |
| 20260905122240 | 25 | 269 | 3.2 | 3.2 | 0.00 | 0.00 | 0.00 | 72 | 1014.2 |
| 20260905121735 | 25 | 138 | 1.6 | 1.6 | 0.00 | 0.00 | 0.00 | 73 | 1014.3 |
| 20260905121232 | 25 | 141 | 0.0 | 1.6 | 0.00 | 0.00 | 0.00 | 74 | 1014.3 |